TimeEDT,TemperatureF,Dew PointF,Humidity,Sea Level PressureIn,VisibilityMPH,Wind Direction,Wind SpeedMPH,Gust SpeedMPH,PrecipitationIn,Events,Conditions,WindDirDegrees,DateUTC
12:06 AM,71.6,69.8,94,29.94,10.0,Calm,Calm,-,N/A,,Overcast,0,2012-07-16 04:06:00
12:53 AM,71.1,70.0,96,29.93,10.0,WSW,4.6,-,0.00,,Mostly Cloudy,240,2012-07-16 04:53:00
1:03 AM,71.6,69.8,94,29.93,10.0,WSW,6.9,-,N/A,,Mostly Cloudy,250,2012-07-16 05:03:00
1:11 AM,71.6,69.8,94,29.93,10.0,West,5.8,-,N/A,,Mostly Cloudy,260,2012-07-16 05:11:00
1:53 AM,71.1,70.0,96,29.91,10.0,West,4.6,-,N/A,,Overcast,270,2012-07-16 05:53:00
2:33 AM,71.6,69.8,94,29.91,10.0,West,5.8,-,N/A,,Overcast,260,2012-07-16 06:33:00
2:51 AM,71.6,69.8,94,29.91,10.0,West,4.6,-,N/A,,Scattered Clouds,260,2012-07-16 06:51:00
2:53 AM,71.1,69.1,93,29.90,10.0,West,4.6,-,N/A,,Scattered Clouds,260,2012-07-16 06:53:00
3:53 AM,71.1,69.1,93,29.87,10.0,West,4.6,-,N/A,,Clear,270,2012-07-16 07:53:00
4:53 AM,70.0,68.0,93,29.89,10.0,Calm,Calm,-,0.01,,Clear,0,2012-07-16 08:53:00
5:53 AM,70.0,66.9,90,29.89,9.0,Calm,Calm,-,N/A,,Clear,0,2012-07-16 09:53:00
6:53 AM,71.1,68.0,90,29.91,9.0,Calm,Calm,-,N/A,,Clear,0,2012-07-16 10:53:00
7:53 AM,73.0,69.1,87,29.91,10.0,West,6.9,-,N/A,,Clear,270,2012-07-16 11:53:00
8:53 AM,77.0,68.0,74,29.90,10.0,NNW,5.8,-,N/A,,Clear,340,2012-07-16 12:53:00
9:30 AM,77.0,66.2,69,29.91,10.0,WNW,5.8,-,N/A,,Clear,290,2012-07-16 13:30:00
9:53 AM,79.0,68.0,69,29.89,10.0,NNW,6.9,-,N/A,,Clear,330,2012-07-16 13:53:00
10:53 AM,81.0,68.0,65,29.88,10.0,Variable,4.6,-,N/A,,Clear,0,2012-07-16 14:53:00
11:53 AM,82.9,66.9,58,29.87,10.0,Variable,6.9,-,N/A,,Mostly Cloudy,0,2012-07-16 15:53:00
12:53 PM,84.9,68.0,57,29.86,10.0,Variable,3.5,-,N/A,,Scattered Clouds,0,2012-07-16 16:53:00
1:53 PM,86.0,66.9,53,29.85,10.0,West,6.9,-,N/A,,Partly Cloudy,280,2012-07-16 17:53:00
2:53 PM,86.0,66.0,51,29.83,10.0,Variable,6.9,-,N/A,,Clear,0,2012-07-16 18:53:00
3:53 PM,86.0,64.9,49,29.82,10.0,Variable,5.8,-,N/A,,Scattered Clouds,0,2012-07-16 19:53:00
4:53 PM,86.0,66.0,51,29.80,10.0,NNW,6.9,-,N/A,,Mostly Cloudy,330,2012-07-16 20:53:00
5:53 PM,86.0,66.0,51,29.80,10.0,WSW,5.8,-,N/A,,Partly Cloudy,250,2012-07-16 21:53:00
6:53 PM,86.0,66.0,51,29.80,10.0,WNW,5.8,-,N/A,,Clear,290,2012-07-16 22:53:00
7:53 PM,80.1,71.1,74,29.80,10.0,Calm,Calm,-,N/A,,Clear,0,2012-07-16 23:53:00
8:53 PM,77.0,70.0,79,29.81,10.0,SSW,4.6,-,N/A,,Clear,210,2012-07-17 00:53:00
9:53 PM,75.0,70.0,84,29.82,10.0,Calm,Calm,-,N/A,,Clear,0,2012-07-17 01:53:00
10:53 PM,73.0,69.1,87,29.83,8.0,SW,3.5,-,N/A,,Clear,220,2012-07-17 02:53:00
11:53 PM,71.1,69.1,93,29.83,7.0,SW,3.5,-,N/A,,Clear,230,2012-07-17 03:53:00